FLOCK 4E'-8 (46816 NORAD) Tracking and Keplerian Element Data

This shows tracking and keplerian element data for the satellite.

Feedback or suggestion? Click here.




ElementValue
Catalog46816
NameFLOCK 4E'-8
Epoch Orbit515
Epoch Day336.94120957
Epoch Year2020
RAAN36.9931
Inclination97.499
Eccentricity0.0010825
Argument of Perigee191.1459
Mean Anonmoly342.3703
Mean Motion15.16196771
Decay Rate5.328E-05
L11 46816U 20077D 20336.94120957 .00005328 00000-0 27892-3 0 9991
L22 46816 97.4990 36.9931 0010825 191.1459 342.3703 15.16196771 5159

Live tracking and technical data element details for FLOCK 4E'-8 (NORAD 46816). FLOCK 4E'-8 can be tracked NOW for your location showing map with azimuth and elevation plus other details from your city location.

Track the satellite on the map from your city or location and see movement details for azimuth, elevation, latitude, longitude, range, height, and movement on the map or in text.







IsCatalogInMostPopularTable: catalog: 46816, numindb: 10
Update: records affected: 1



GetName: 46816 FLOCK 4E'-8

Hit Count: updated at: Wed, 02 Dec 2020 07:11:20 GMT